�������C�����ː����j�^�v���󋵏��
Date,Time,Cs137(Bq/L),Cs134(Bq/L),�S��(Bq/L)
2021/01/29,00:00,-,-,17
2021/01/29,00:10,-,-,16
2021/01/29,00:20,-,-,18
2021/01/29,00:30,-,-,17
2021/01/29,00:40,-,-,17
2021/01/29,00:50,-,-,17
2021/01/29,01:00,-,-,18
2021/01/29,01:10,-,-,19
2021/01/29,01:20,-,-,18
2021/01/29,01:30,-,-,20
2021/01/29,01:40,-,-,15
2021/01/29,01:50,-,-,15
2021/01/29,02:00,-,-,15
2021/01/29,02:10,-,-,18
2021/01/29,02:20,-,-,18
2021/01/29,02:30,-,-,19
2021/01/29,02:40,-,-,26
2021/01/29,02:50,-,-,27
2021/01/29,03:00,-,-,26
2021/01/29,03:10,-,-,25
2021/01/29,03:20,-,-,23
2021/01/29,03:30,-,-,20
2021/01/29,03:40,-,-,17
2021/01/29,03:50,-,-,16
2021/01/29,04:00,-,-,17
2021/01/29,04:10,-,-,15
2021/01/29,04:20,-,-,17
2021/01/29,04:30,-,-,20
2021/01/29,04:40,-,-,23
2021/01/29,04:50,-,-,24
2021/01/29,05:00,-,-,24
2021/01/29,05:10,-,-,24
2021/01/29,05:20,-,-,23
2021/01/29,05:30,-,-,24
2021/01/29,05:40,-,-,19
2021/01/29,05:50,-,-,19
2021/01/29,06:00,-,-,19
2021/01/29,06:10,-,-,17
2021/01/29,06:20,-,-,18
2021/01/29,06:30,-,-,15
2021/01/29,06:40,-,-,17
2021/01/29,06:50,-,-,16
2021/01/29,07:00,-,-,17
2021/01/29,07:10,-,-,19
2021/01/29,07:20,-,-,20
2021/01/29,07:30,-,-,21
2021/01/29,07:40,-,-,21
2021/01/29,07:50,-,-,21
2021/01/29,08:00,-,-,22
2021/01/29,08:10,-,-,20
2021/01/29,08:20,-,-,20
2021/01/29,08:30,-,-,17
2021/01/29,08:40,-,-,15
2021/01/29,08:50,-,-,15
2021/01/29,09:00,-,-,16
2021/01/29,09:10,-,-,16
2021/01/29,09:20,-,-,14
2021/01/29,09:30,-,-,16
2021/01/29,09:40,-,-,17
2021/01/29,09:50,-,-,16
2021/01/29,10:00,-,-,16
2021/01/29,10:10,-,-,15
2021/01/29,10:20,-,-,18
2021/01/29,10:30,-,-,20
2021/01/29,10:40,-,-,20
2021/01/29,10:50,-,-,21
2021/01/29,11:00,-,-,21
2021/01/29,11:10,-,-,24
2021/01/29,11:20,-,-,22
2021/01/29,11:30,-,-,19
2021/01/29,11:40,-,-,19
2021/01/29,11:50,-,-,20
2021/01/29,12:00,-,-,20
2021/01/29,12:10,-,-,17
2021/01/29,12:20,-,-,19
2021/01/29,12:30,-,-,19
2021/01/29,12:40,-,-,22
2021/01/29,12:50,-,-,20
2021/01/29,13:00,-,-,18
2021/01/29,13:10,-,-,19
2021/01/29,13:20,-,-,20
2021/01/29,13:30,-,-,18
2021/01/29,13:40,-,-,16
2021/01/29,13:50,-,-,14
2021/01/29,14:00,-,-,14
2021/01/29,14:10,-,-,15
2021/01/29,14:20,-,-,16
2021/01/29,14:30,-,-,19
2021/01/29,14:40,-,-,20
2021/01/29,14:50,-,-,23
2021/01/29,15:00,-,-,27
2021/01/29,15:10,-,-,26
2021/01/29,15:20,-,-,23
2021/01/29,15:30,-,-,23
2021/01/29,15:40,-,-,23
2021/01/29,15:50,-,-,21
2021/01/29,16:00,-,-,17
2021/01/29,16:10,-,-,16
2021/01/29,16:20,-,-,17
2021/01/29,16:30,-,-,17
2021/01/29,16:40,-,-,14
2021/01/29,16:50,-,-,16
2021/01/29,17:00,-,-,17
2021/01/29,17:10,-,-,18
2021/01/29,17:20,-,-,17
2021/01/29,17:30,-,-,16
2021/01/29,17:40,-,-,17
2021/01/29,17:50,-,-,16
2021/01/29,18:00,-,-,17
2021/01/29,18:10,-,-,17
2021/01/29,18:20,-,-,18
2021/01/29,18:30,-,-,18
2021/01/29,18:40,-,-,18
2021/01/29,18:50,-,-,18
2021/01/29,19:00,-,-,16
2021/01/29,19:10,-,-,17
2021/01/29,19:20,-,-,17
2021/01/29,19:30,-,-,18
2021/01/29,19:40,-,-,17
2021/01/29,19:50,-,-,16
2021/01/29,20:00,-,-,15
2021/01/29,20:10,-,-,16
2021/01/29,20:20,-,-,16
2021/01/29,20:30,-,-,15
2021/01/29,20:40,-,-,17
2021/01/29,20:50,-,-,19
2021/01/29,21:00,-,-,19
2021/01/29,21:10,-,-,16
2021/01/29,21:20,-,-,17
2021/01/29,21:30,-,-,18
2021/01/29,21:40,-,-,18
2021/01/29,21:50,-,-,18
2021/01/29,22:00,-,-,21
2021/01/29,22:10,-,-,24
2021/01/29,22:20,-,-,24
2021/01/29,22:30,-,-,26
2021/01/29,22:40,-,-,25
2021/01/29,22:50,-,-,24
2021/01/29,23:00,-,-,23
2021/01/29,23:10,-,-,21
2021/01/29,23:20,-,-,18
2021/01/29,23:30,-,-,15
2021/01/29,23:40,-,-,15
2021/01/29,23:50,-,-,15
